Wetterdaten: Woche 06.03.06 - 12.03.06 (KW10)
Datum Zeit Temperatur Luftfeuchte Luftdruck Niederschlag Windrichtung Wind
06.03.2006 00:00 -3,0 C 83 % 1012 hPa 0,0 l/m N 0,0 km/h (0 Bft)
06.03.2006 01:00 -3,4 C 84 % 1012 hPa 0,0 l/m N 0,0 km/h (0 Bft)
06.03.2006 02:00 -3,4 C 87 % 1013 hPa 0,0 l/m N 0,0 km/h (0 Bft)
06.03.2006 03:00 -4,0 C 88 % 1012 hPa 0,0 l/m N 0,0 km/h (0 Bft)
06.03.2006 04:00 -5,3 C 88 % 1013 hPa 0,0 l/m N 0,0 km/h (0 Bft)
06.03.2006 05:00 -6,6 C 89 % 1013 hPa 0,0 l/m N 0,0 km/h (0 Bft)
06.03.2006 06:00 -7,7 C 90 % 1013 hPa 0,0 l/m N 0,0 km/h (0 Bft)
06.03.2006 07:00 -6,9 C 93 % 1013 hPa 0,0 l/m N 0,0 km/h (0 Bft)
06.03.2006 08:00 -5,5 C 96 % 1014 hPa 0,0 l/m N 0,0 km/h (0 Bft)
06.03.2006 09:00 -3,4 C 94 % 1014 hPa 0,0 l/m N 0,0 km/h (0 Bft)
06.03.2006 10:00 -0,8 C 75 % 1014 hPa 0,0 l/m N 0,0 km/h (0 Bft)
06.03.2006 11:00 0,1 C 67 % 1014 hPa 0,0 l/m N 0,0 km/h (0 Bft)
06.03.2006 12:00 0,6 C 62 % 1014 hPa 0,0 l/m S 8,9 km/h (2 Bft)
06.03.2006 13:00 1,5 C 58 % 1014 hPa 0,0 l/m S 13,7 km/h (3 Bft)
06.03.2006 14:00 1,4 C 58 % 1013 hPa 0,0 l/m S 17,1 km/h (3 Bft)
06.03.2006 15:00 0,5 C 64 % 1013 hPa 0,0 l/m S 12,7 km/h (3 Bft)
06.03.2006 16:00 -0,8 C 80 % 1014 hPa 0,0 l/m S-SW 12,4 km/h (3 Bft)
06.03.2006 17:00 -1,3 C 85 % 1014 hPa 0,0 l/m S 11,1 km/h (2 Bft)
06.03.2006 18:00 -1,6 C 87 % 1014 hPa 0,0 l/m S 11,9 km/h (2 Bft)
06.03.2006 19:00 -2,3 C 88 % 1015 hPa 0,0 l/m S-SO 6,0 km/h (2 Bft)
06.03.2006 20:00 -2,7 C 89 % 1015 hPa 0,0 l/m S-SO 9,2 km/h (2 Bft)
06.03.2006 21:00 -3,1 C 90 % 1015 hPa 0,0 l/m S-SO 6,7 km/h (2 Bft)
06.03.2006 22:00 -4,3 C 89 % 1016 hPa 0,0 l/m SO 1,1 km/h (0 Bft)
06.03.2006 23:00 -5,1 C 90 % 1016 hPa 0,0 l/m SO 0,7 km/h (0 Bft)
07.03.2006 00:00 -5,8 C 91 % 1016 hPa 0,0 l/m N 0,0 km/h (0 Bft)
07.03.2006 01:00 -6,4 C 91 % 1017 hPa 0,0 l/m N 0,1 km/h (0 Bft)
07.03.2006 02:00 -5,4 C 93 % 1017 hPa 0,0 l/m S-SW 6,4 km/h (2 Bft)
07.03.2006 03:00 -3,7 C 94 % 1017 hPa 0,0 l/m S 9,6 km/h (2 Bft)
07.03.2006 04:00 -4,2 C 86 % 1017 hPa 0,0 l/m S 10,3 km/h (2 Bft)
07.03.2006 05:00 -4,7 C 84 % 1017 hPa 0,0 l/m S-SW 9,6 km/h (2 Bft)
07.03.2006 06:00 -4,3 C 87 % 1017 hPa 0,0 l/m S 9,1 km/h (2 Bft)
07.03.2006 07:00 -4,4 C 86 % 1018 hPa 0,0 l/m S-SO 4,4 km/h (1 Bft)
07.03.2006 08:00 -4,1 C 85 % 1019 hPa 0,0 l/m SO 3,2 km/h (1 Bft)
07.03.2006 09:00 -2,0 C 79 % 1019 hPa 0,0 l/m S-SW 13,2 km/h (3 Bft)
07.03.2006 10:00 -0,5 C 73 % 1019 hPa 0,0 l/m S-SW 14,9 km/h (3 Bft)
07.03.2006 11:00 -0,5 C 76 % 1019 hPa 0,0 l/m SW 14,4 km/h (3 Bft)
07.03.2006 12:00 -0,4 C 67 % 1019 hPa 0,0 l/m SW 14,0 km/h (3 Bft)
07.03.2006 13:00 1,1 C 62 % 1019 hPa 0,0 l/m SW 13,4 km/h (3 Bft)
07.03.2006 14:00 1,1 C 58 % 1019 hPa 0,0 l/m SW 14,3 km/h (3 Bft)
07.03.2006 15:00 -0,0 C 61 % 1018 hPa 0,0 l/m S-SW 15,1 km/h (3 Bft)
07.03.2006 16:00 -0,0 C 61 % 1019 hPa 0,0 l/m SW 12,8 km/h (3 Bft)
07.03.2006 17:00 -1,3 C 72 % 1018 hPa 0,0 l/m S-SO 7,3 km/h (2 Bft)
07.03.2006 18:00 -2,5 C 75 % 1019 hPa 0,0 l/m S-SW 1,2 km/h (1 Bft)
07.03.2006 19:00 -3,9 C 78 % 1019 hPa 0,0 l/m S 0,2 km/h (0 Bft)
07.03.2006 20:00 -4,8 C 83 % 1018 hPa 0,0 l/m S 2,2 km/h (1 Bft)
07.03.2006 21:00 -5,6 C 84 % 1018 hPa 0,0 l/m N 0,0 km/h (0 Bft)
07.03.2006 22:00 -6,6 C 84 % 1017 hPa 0,0 l/m N 0,0 km/h (0 Bft)
07.03.2006 23:00 -7,5 C 85 % 1017 hPa 0,0 l/m N 0,0 km/h (0 Bft)
08.03.2006 00:00 -8,7 C 86 % 1016 hPa 0,0 l/m N 0,0 km/h (0 Bft)
08.03.2006 01:00 -9,7 C 87 % 1016 hPa 0,0 l/m N 0,0 km/h (0 Bft)
08.03.2006 02:00 -10,5 C 87 % 1015 hPa 0,0 l/m N 0,0 km/h (0 Bft)
08.03.2006 03:00 -10,7 C 87 % 1015 hPa 0,0 l/m N 0,0 km/h (0 Bft)
08.03.2006 04:00 -10,7 C 87 % 1014 hPa 0,0 l/m N 0,0 km/h (0 Bft)
08.03.2006 05:00 -11,0 C 87 % 1014 hPa 0,0 l/m N 0,0 km/h (0 Bft)
08.03.2006 06:00 -12,1 C 87 % 1013 hPa 0,0 l/m N 0,0 km/h (0 Bft)
08.03.2006 07:00 -11,3 C 87 % 1013 hPa 0,0 l/m N 0,0 km/h (0 Bft)
08.03.2006 08:00 -9,3 C 86 % 1013 hPa 0,0 l/m N 0,0 km/h (0 Bft)
08.03.2006 09:00 -6,5 C 84 % 1013 hPa 0,0 l/m N 0,0 km/h (0 Bft)
08.03.2006 10:00 -4,4 C 74 % 1012 hPa 0,0 l/m S-SW 6,4 km/h (2 Bft)
08.03.2006 11:00 -2,0 C 70 % 1012 hPa 0,0 l/m S 12,7 km/h (3 Bft)
08.03.2006 12:00 -1,4 C 70 % 1011 hPa 0,0 l/m S 17,2 km/h (3 Bft)
08.03.2006 13:00 -1,3 C 82 % 1010 hPa 0,0 l/m S 16,1 km/h (3 Bft)
08.03.2006 14:00 -1,3 C 89 % 1009 hPa 0,0 l/m S 16,2 km/h (3 Bft)
08.03.2006 15:00 -0,8 C 92 % 1008 hPa 0,0 l/m S-SW 16,7 km/h (3 Bft)
08.03.2006 16:00 0,1 C 97 % 1007 hPa 0,0 l/m SW 12,9 km/h (3 Bft)
08.03.2006 17:00 0,5 C 100 % 1007 hPa 0,0 l/m SW 15,4 km/h (3 Bft)
08.03.2006 18:00 0,8 C 100 % 1006 hPa 0,0 l/m SW 18,1 km/h (3 Bft)
08.03.2006 19:00 1,1 C 100 % 1005 hPa 0,0 l/m SW 18,3 km/h (3 Bft)
08.03.2006 20:00 1,6 C 100 % 1004 hPa 0,0 l/m SW 18,9 km/h (3 Bft)
08.03.2006 21:00 1,9 C 100 % 1003 hPa 0,0 l/m SW 19,1 km/h (3 Bft)
08.03.2006 22:00 2,3 C 100 % 1003 hPa 0,0 l/m SW 17,9 km/h (3 Bft)
08.03.2006 23:00 3,5 C 100 % 1002 hPa 0,0 l/m SW 22,3 km/h (4 Bft)
09.03.2006 00:00 4,2 C 100 % 1002 hPa 0,0 l/m S-SW 20,7 km/h (4 Bft)
09.03.2006 01:00 4,2 C 100 % 1001 hPa 1,0 l/m SW 17,7 km/h (3 Bft)
09.03.2006 02:00 3,8 C 100 % 1001 hPa 0,0 l/m SW 17,5 km/h (3 Bft)
09.03.2006 03:00 4,4 C 100 % 1000 hPa 0,0 l/m SW 17,8 km/h (3 Bft)
09.03.2006 04:00 4,8 C 100 % 1000 hPa 0,0 l/m SW 19,9 km/h (4 Bft)
09.03.2006 05:00 5,1 C 98 % 1000 hPa 1,0 l/m SW 21,4 km/h (4 Bft)
09.03.2006 06:00 5,1 C 95 % 1001 hPa 1,0 l/m SW 21,6 km/h (4 Bft)
09.03.2006 07:00 5,2 C 93 % 1002 hPa 1,0 l/m W-SW 19,0 km/h (3 Bft)
09.03.2006 08:00 5,6 C 89 % 1003 hPa 3,0 l/m SW 21,6 km/h (4 Bft)
09.03.2006 09:00 5,9 C 84 % 1003 hPa 2,0 l/m SW 19,5 km/h (3 Bft)
09.03.2006 10:00 6,1 C 82 % 1004 hPa 1,0 l/m SW 22,4 km/h (4 Bft)
09.03.2006 11:00 6,2 C 81 % 1005 hPa 0,0 l/m SW 21,2 km/h (4 Bft)
09.03.2006 12:00 5,9 C 82 % 1005 hPa 0,0 l/m SW 24,4 km/h (4 Bft)
09.03.2006 13:00 6,5 C 76 % 1005 hPa 0,0 l/m W-SW 24,5 km/h (4 Bft)
09.03.2006 14:00 7,1 C 69 % 1005 hPa 0,0 l/m W-SW 27,1 km/h (4 Bft)
09.03.2006 15:00 7,5 C 62 % 1005 hPa 0,0 l/m SW 24,0 km/h (4 Bft)
09.03.2006 16:00 7,7 C 57 % 1005 hPa 0,0 l/m W-SW 19,4 km/h (3 Bft)
09.03.2006 17:00 7,0 C 58 % 1005 hPa 0,0 l/m W-SW 19,0 km/h (3 Bft)
09.03.2006 18:00 6,4 C 58 % 1005 hPa 0,0 l/m W-SW 14,1 km/h (3 Bft)
09.03.2006 19:00 6,2 C 62 % 1005 hPa 0,0 l/m SW 9,7 km/h (2 Bft)
09.03.2006 20:00 5,5 C 68 % 1005 hPa 0,0 l/m S-SW 12,5 km/h (3 Bft)
09.03.2006 21:00 4,0 C 80 % 1005 hPa 1,0 l/m S 4,0 km/h (1 Bft)
09.03.2006 22:00 3,4 C 91 % 1005 hPa 0,0 l/m S 8,7 km/h (2 Bft)
09.03.2006 23:00 2,9 C 97 % 1004 hPa 0,0 l/m S-SW 11,5 km/h (2 Bft)
10.03.2006 00:00 3,9 C 97 % 1005 hPa 0,0 l/m S-SW 17,2 km/h (3 Bft)
10.03.2006 01:00 4,2 C 83 % 1006 hPa 0,0 l/m S-SW 13,8 km/h (3 Bft)
10.03.2006 02:00 3,8 C 84 % 1006 hPa 0,0 l/m S-SW 13,7 km/h (3 Bft)
10.03.2006 03:00 3,7 C 80 % 1006 hPa 0,0 l/m S-SW 16,4 km/h (3 Bft)
10.03.2006 04:00 3,1 C 80 % 1007 hPa 0,0 l/m S-SW 18,3 km/h (3 Bft)
10.03.2006 05:00 2,6 C 86 % 1007 hPa 0,0 l/m SW 15,3 km/h (3 Bft)
10.03.2006 06:00 2,5 C 85 % 1007 hPa 0,0 l/m SW 16,7 km/h (3 Bft)
10.03.2006 07:00 2,6 C 83 % 1007 hPa 0,0 l/m W-SW 21,2 km/h (4 Bft)
10.03.2006 08:00 3,4 C 72 % 1006 hPa 0,0 l/m W-SW 25,6 km/h (4 Bft)
10.03.2006 09:00 4,5 C 60 % 1006 hPa 0,0 l/m SW 22,0 km/h (4 Bft)
10.03.2006 10:00 5,0 C 55 % 1006 hPa 0,0 l/m SW 24,8 km/h (4 Bft)
10.03.2006 11:00 5,8 C 51 % 1005 hPa 0,0 l/m W-SW 19,8 km/h (3 Bft)
10.03.2006 12:00 5,7 C 53 % 1005 hPa 0,0 l/m S-SW 23,5 km/h (4 Bft)
10.03.2006 13:00 4,7 C 66 % 1004 hPa 0,0 l/m W-SW 18,4 km/h (3 Bft)
10.03.2006 14:00 3,7 C 71 % 1004 hPa 0,0 l/m SW 18,4 km/h (3 Bft)
10.03.2006 15:00 4,6 C 59 % 1004 hPa 0,0 l/m SW 21,5 km/h (4 Bft)
10.03.2006 16:00 3,1 C 73 % 1004 hPa 0,0 l/m S-SW 15,6 km/h (3 Bft)
10.03.2006 17:00 2,3 C 83 % 1004 hPa 0,0 l/m S 15,9 km/h (3 Bft)
10.03.2006 18:00 1,8 C 82 % 1004 hPa 0,0 l/m S-SW 12,5 km/h (3 Bft)
10.03.2006 19:00 1,3 C 79 % 1004 hPa 0,0 l/m SW 17,9 km/h (3 Bft)
10.03.2006 20:00 1,0 C 79 % 1005 hPa 0,0 l/m S 16,6 km/h (3 Bft)
10.03.2006 21:00 0,6 C 86 % 1004 hPa 0,0 l/m S 14,9 km/h (3 Bft)
10.03.2006 22:00 0,9 C 87 % 1004 hPa 0,0 l/m S-SW 16,8 km/h (3 Bft)
10.03.2006 23:00 1,0 C 86 % 1003 hPa 0,0 l/m S 21,2 km/h (4 Bft)
11.03.2006 00:00 0,8 C 92 % 1003 hPa 0,0 l/m S-SW 22,7 km/h (4 Bft)
11.03.2006 17:00 2,0 C 80 % 1007 hPa 0,0 l/m S 19,1 km/h (3 Bft)
11.03.2006 18:00 1,4 C 87 % 1008 hPa 0,0 l/m SW 13,6 km/h (3 Bft)
11.03.2006 19:00 1,3 C 90 % 1008 hPa 2,0 l/m SW 15,9 km/h (3 Bft)
11.03.2006 20:00 1,4 C 89 % 1008 hPa 0,0 l/m SW 16,0 km/h (3 Bft)
11.03.2006 21:00 0,3 C 91 % 1009 hPa 0,0 l/m W 11,6 km/h (2 Bft)
11.03.2006 22:00 -2,1 C 85 % 1010 hPa 0,0 l/m N 0,0 km/h (0 Bft)
11.03.2006 23:00 -3,1 C 73 % 1011 hPa 0,0 l/m N 0,0 km/h (0 Bft)
12.03.2006 00:00 -4,0 C 73 % 1013 hPa 0,0 l/m N 0,0 km/h (0 Bft)
12.03.2006 01:00 -4,7 C 70 % 1014 hPa 0,0 l/m N 0,0 km/h (0 Bft)
12.03.2006 02:00 -5,2 C 67 % 1015 hPa 0,0 l/m N 0,0 km/h (0 Bft)
12.03.2006 03:00 -5,4 C 70 % 1015 hPa 0,0 l/m N 0,0 km/h (0 Bft)
12.03.2006 04:00 -5,8 C 74 % 1016 hPa 0,0 l/m N 0,0 km/h (0 Bft)
12.03.2006 05:00 -5,9 C 80 % 1017 hPa 0,0 l/m N 0,0 km/h (0 Bft)
12.03.2006 06:00 -6,3 C 79 % 1018 hPa 0,0 l/m N 0,0 km/h (0 Bft)
12.03.2006 07:00 -6,6 C 74 % 1019 hPa 0,0 l/m N 0,0 km/h (0 Bft)
12.03.2006 08:00 -6,1 C 77 % 1020 hPa 0,0 l/m N 0,0 km/h (0 Bft)
12.03.2006 09:00 -4,9 C 69 % 1021 hPa 0,0 l/m N 0,0 km/h (0 Bft)
12.03.2006 10:00 -4,9 C 62 % 1022 hPa 0,0 l/m N 0,0 km/h (0 Bft)
12.03.2006 11:00 -3,7 C 53 % 1022 hPa 0,0 l/m N 15,1 km/h (3 Bft)
12.03.2006 12:00 -3,3 C 52 % 1023 hPa 0,0 l/m NO 19,1 km/h (3 Bft)
12.03.2006 13:00 -2,8 C 51 % 1023 hPa 1,0 l/m N 14,6 km/h (3 Bft)
12.03.2006 14:00 -2,8 C 53 % 1023 hPa 0,0 l/m N 16,5 km/h (3 Bft)
12.03.2006 15:00 -3,2 C 54 % 1024 hPa 0,0 l/m N 14,5 km/h (3 Bft)
12.03.2006 16:00 -3,6 C 56 % 1024 hPa 0,0 l/m N-NO 12,5 km/h (3 Bft)
12.03.2006 17:00 -4,0 C 53 % 1025 hPa 0,0 l/m N 14,4 km/h (3 Bft)
12.03.2006 18:00 -4,9 C 57 % 1026 hPa 0,0 l/m N 12,2 km/h (2 Bft)
12.03.2006 19:00 -5,7 C 61 % 1026 hPa 0,0 l/m N 9,4 km/h (2 Bft)
12.03.2006 20:00 -6,1 C 72 % 1027 hPa 0,0 l/m N 10,3 km/h (2 Bft)
12.03.2006 21:00 -6,4 C 77 % 1027 hPa 0,0 l/m N 8,0 km/h (2 Bft)
12.03.2006 22:00 -6,3 C 81 % 1027 hPa 0,0 l/m N 7,9 km/h (2 Bft)
12.03.2006 23:00 -6,5 C 84 % 1027 hPa 0,0 l/m N-NO 11,2 km/h (2 Bft)
Min-Datum _ 08.03.06 12.03.06 09.03.06 - - 06.03.06
_ Min-Zeit 06:29 13:53 03:03 - - 00:00
Minimum _ -12,5 C 45 % 1000 hPa - - 0,0 km/h (0 Bft)
Max-Datum _ 09.03.06 08.03.06 12.03.06 09.03.06 - 09.03.06
_ Max-Zeit 16:13 17:04 20:04 08:02 - 15:25
Maximum _ 7,9 C 100 % 1027 hPa 3,0 l/m - 59,0 km/h
SW (7 Bft)
Durchschnitt _ -1,0 C 80 % 1012 hPa #14,0 l/m SW 10,9 km/h (2 Bft)

Durchschnitt Minimum Temp.-1,4 C
Durchschnitt Maximum Temp.-0,6 C